Location: Huntsville
(41.2590°N, 111.7678°W)
Time: 08:26:22
(UTC+00:00)

Vanguard 2 Rocket - Visible Passes

Search period start: 25 September 2022 00:00
Search period end: 05 October 2022 00:00
Orbit: 553 x 3323 km, 32.9° (Epoch: 24 September)

Date Brightness Start Highest point End Pass type
(mag) Time Alt. Az. Time Alt. Az. Time Alt. Az.
25 Sep 7.3 11:56:41 22° SW 11:58:02 25° SSW 12:01:21 10° SE visible
26 Sep 7.7 11:00:07 25° SSE 11:00:07 25° SSE 11:02:17 10° SE visible
27 Sep 7.6 12:09:19 17° SW 12:10:54 20° SSW 12:13:56 10° SSE visible
28 Sep 7.7 11:12:48 24° SSE 11:12:48 24° SSE 11:15:11 10° SE visible
29 Sep 8.0 12:22:04 12° SW 12:23:40 14° SSW 12:25:56 10° S visible
30 Sep 10.4 04:33:20 10° SSW 04:35:35 13° S 04:35:35 13° S visible
30 Sep 7.9 11:25:35 21° S 11:25:35 21° S 11:27:47 10° SSE visible
01 Oct 10.3 03:33:33 10° S 03:39:23 15° SSE 03:39:23 15° SSE visible
01 Oct 10.6 05:44:56 10° SW 05:45:11 10° SW 05:45:11 10° SW visible
02 Oct 10.3 02:36:10 10° SSE 02:41:09 12° SE 02:43:10 11° SE visible
02 Oct 10.2 04:43:21 10° SSW 04:48:58 20° SSW 04:48:58 20° SSW visible
02 Oct 8.3 11:38:29 15° S 11:38:29 15° S 11:39:55 10° S visible
03 Oct 9.9 03:42:21 10° SSW 03:52:45 24° SSE 03:52:45 24° SSE visible
03 Oct 10.5 05:56:28 10° SW 05:58:33 14° SW 05:58:33 14° SW visible
04 Oct 10.0 02:42:20 10° S 02:53:55 20° SE 02:56:30 19° SE visible
04 Oct 10.0 04:54:20 10° SW 05:02:18 27° SSW 05:02:18 27° SSW visible
